Tracking 18980 objects as of 21-Feb-2018
HD Live streaming from Space Station
objects crossing your sky now

SL-8 R/B

Track SL-8 R/B now!
10-day predictions
SL-8 R/B is classified as:


NORAD ID: 21876
Int'l Code: 1992-008B
Perigee: 960.1 km
Apogee: 1,013.1 km
Inclination: 82.9 °
Period: 104.7 minutes
Semi major axis: 7357 km
RCS: 7.548 m2 (large)
Launch date: February 17, 1992
Source: Commonwealth of Independent States (former USSR) (CIS)
Launch site: PLESETSK MISSILE AND SPACE COMPLEX (PKMTR)

Note: This is a ROCKET BODY
aabbcc
Your satellite tracking list
Your tracking list is empty




NASA's NSSDC Master Catalog

Two Line Element Set (TLE):
1 21876U 92008B   18051.80180882  .00000029  00000-0  13509-4 0  9996
2 21876  82.9261 292.4307 0035996  61.2162   8.2634 13.75620460305567
Source of the keplerian elements: AFSPC